Back to catalog

BLOCK DM-SL R/B

AliveHEO
NORAD 29237·ROCKET BODY· XX

Launched Jun 18, 2006 from Sea Launch Platform

Loading…

Next Passes (next 24 hours)

TLE

FreshSource: Space-Track

Epoch: Sep 14, 2026, 13:39 UTC

1 29237U 06023B   26257.56926967 -.00000074  00000-0  00000-0 0  9998
2 29237   1.0080  23.5312 6626727  65.9880 347.9527  2.15891213159602

Track BLOCK DM-SL R/B in real time with AllMySat

Download on the App Store